• în România
  • Lista ţărilor
  • Pe 7 zile
  • Temperatura apei
  • Hartă satelitară
  • Meteo pe hartă
  • Widget-uri
  • user-avatar
    Intrare

    Meteo pe oră la Rasskazy

    Astăzi, 23 Iulie, Luni

    Timp Temperatura Precipitaţii Vânt Presiune Umiditate
    00:00 +18°C° 0 mm 2 m/s 739 mmHg 98%
    01:00 +18°C° 0 mm 2 m/s 739 mmHg 98%
    02:00 +19°C° 0 mm 1 m/s 739 mmHg 98%
    03:00 +18°C° 0 mm 2 m/s 739 mmHg 98%
    04:00 +18°C° 0 mm 2 m/s 739 mmHg 98%
    05:00 +18°C° 0 mm 2 m/s 739 mmHg 97%
    06:00 +19°C° 0,1 mm 2 m/s 739 mmHg 93%
    07:00 +20°C° 0,1 mm 2 m/s 739 mmHg 89%
    08:00 +21°C° 0,1 mm 3 m/s 739 mmHg 85%
    09:00 +22°C° 0,2 mm 3 m/s 739 mmHg 81%
    10:00 +22°C° 0,2 mm 3 m/s 739 mmHg 77%
    11:00 +24°C° 0,2 mm 3 m/s 739 mmHg 73%
    12:00 +24°C° 0,1 mm 3 m/s 739 mmHg 70%
    13:00 +25°C° 0,1 mm 3 m/s 739 mmHg 68%
    14:00 +25°C° 0,1 mm 3 m/s 739 mmHg 65%
    15:00 +25°C° 0 mm 3 m/s 739 mmHg 67%
    16:00 +25°C° 0 mm 3 m/s 739 mmHg 68%
    17:00 +24°C° 0 mm 2 m/s 739 mmHg 69%
    18:00 +23°C° 0 mm 2 m/s 739 mmHg 76%
    19:00 +21°C° 0 mm 2 m/s 740 mmHg 83%
    20:00 +19°C° 0 mm 2 m/s 740 mmHg 90%
    21:00 +19°C° 0 mm 2 m/s 740 mmHg 92%
    22:00 +18°C° 0 mm 2 m/s 740 mmHg 95%
    23:00 +17°C° 0 mm 2 m/s 740 mmHg 98%

    Mâine, 24 Iulie, Marţi

    Timp Temperatura Precipitaţii Vânt Presiune Umiditate
    00:00 +17°C° 0 mm 2 m/s 740 mmHg 98%
    01:00 +16°C° 0 mm 2 m/s 740 mmHg 98%
    02:00 +16°C° 0 mm 2 m/s 740 mmHg 98%
    03:00 +16°C° 0 mm 2 m/s 740 mmHg 97%
    04:00 +16°C° 0 mm 2 m/s 740 mmHg 97%
    05:00 +16°C° 0 mm 2 m/s 740 mmHg 96%
    06:00 +17°C° 0 mm 2 m/s 741 mmHg 92%
    07:00 +19°C° 0 mm 3 m/s 741 mmHg 88%
    08:00 +20°C° 0 mm 3 m/s 741 mmHg 83%
    09:00 +21°C° 0 mm 3 m/s 741 mmHg 79%
    10:00 +22°C° 0 mm 3 m/s 741 mmHg 75%
    11:00 +24°C° 0 mm 3 m/s 741 mmHg 71%
    12:00 +24°C° 0,3 mm 3 m/s 741 mmHg 72%
    13:00 +25°C° 0,3 mm 3 m/s 741 mmHg 72%
    14:00 +25°C° 0,3 mm 3 m/s 741 mmHg 72%
    15:00 +25°C° 0,2 mm 3 m/s 741 mmHg 74%
    16:00 +24°C° 0,2 mm 3 m/s 741 mmHg 76%
    17:00 +24°C° 0,2 mm 3 m/s 741 mmHg 77%
    18:00 +23°C° 0,1 mm 2 m/s 741 mmHg 82%
    19:00 +21°C° 0,1 mm 2 m/s 741 mmHg 87%
    20:00 +20°C° 0,1 mm 2 m/s 741 mmHg 92%
    21:00 +20°C° 0 mm 2 m/s 741 mmHg 93%
    22:00 +19°C° 0 mm 2 m/s 741 mmHg 95%
    23:00 +20°C° 0 mm 1 m/s 741 mmHg 96%

    Poimâine, 25 Iulie, Miercuri

    Timp Temperatura Precipitaţii Vânt Presiune Umiditate
    00:00 +18°C° 0 mm 2 m/s 741 mmHg 97%
    01:00 +18°C° 0 mm 2 m/s 741 mmHg 97%
    02:00 +18°C° 0 mm 2 m/s 742 mmHg 98%
    03:00 +18°C° 0 mm 2 m/s 742 mmHg 98%
    04:00 +18°C° 0 mm 2 m/s 742 mmHg 98%
    05:00 +18°C° 0 mm 2 m/s 742 mmHg 98%
    06:00 +19°C° 0 mm 2 m/s 742 mmHg 92%
    07:00 +21°C° 0 mm 2 m/s 742 mmHg 87%
    08:00 +24°C° 0 mm 2 m/s 742 mmHg 82%
    09:00 +25°C° 0 mm 2 m/s 743 mmHg 75%
    10:00 +27°C° 0 mm 2 m/s 743 mmHg 68%
    11:00 +28°C° 0 mm 2 m/s 743 mmHg 62%
    12:00 +28°C° 0,7 mm 3 m/s 743 mmHg 67%
    13:00 +28°C° 0,7 mm 3 m/s 742 mmHg 72%
    14:00 +27°C° 0,7 mm 3 m/s 742 mmHg 77%
    15:00 +27°C° 0,4 mm 3 m/s 742 mmHg 76%
    16:00 +27°C° 0,4 mm 3 m/s 743 mmHg 76%
    17:00 +26°C° 0,4 mm 3 m/s 743 mmHg 75%
    18:00 +25°C° 0 mm 2 m/s 743 mmHg 79%
    19:00 +24°C° 0 mm 2 m/s 743 mmHg 84%
    20:00 +21°C° 0 mm 2 m/s 743 mmHg 88%
    21:00 +20°C° 0 mm 2 m/s 743 mmHg 89%
    22:00 +19°C° 0 mm 2 m/s 744 mmHg 89%
    23:00 +18°C° 0 mm 2 m/s 744 mmHg 90%

    26 Iulie, Joi

    Timp Temperatura Precipitaţii Vânt Presiune Umiditate
    00:00 +18°C° 0 mm 2 m/s 744 mmHg 89%
    01:00 +17°C° 0 mm 2 m/s 743 mmHg 89%
    02:00 +17°C° 0 mm 2 m/s 743 mmHg 88%
    03:00 +17°C° 0 mm 2 m/s 743 mmHg 86%
    04:00 +17°C° 0 mm 3 m/s 744 mmHg 84%
    05:00 +17°C° 0 mm 3 m/s 744 mmHg 83%
    06:00 +19°C° 0 mm 3 m/s 744 mmHg 78%
    07:00 +20°C° 0 mm 3 m/s 744 mmHg 73%
    08:00 +22°C° 0 mm 3 m/s 744 mmHg 68%
    09:00 +25°C° 0 mm 4 m/s 744 mmHg 63%
    10:00 +27°C° 0 mm 4 m/s 744 mmHg 59%
    11:00 +29°C° 0 mm 4 m/s 744 mmHg 54%
    12:00 +29°C° 0,2 mm 4 m/s 744 mmHg 53%
    13:00 +29°C° 0,2 mm 4 m/s 744 mmHg 52%
    14:00 +30°C° 0,2 mm 4 m/s 744 mmHg 51%
    15:00 +30°C° 0,1 mm 4 m/s 744 mmHg 54%
    16:00 +29°C° 0,1 mm 3 m/s 744 mmHg 57%
    17:00 +29°C° 0,1 mm 3 m/s 744 mmHg 59%
    18:00 +27°C° 0,4 mm 3 m/s 744 mmHg 68%
    19:00 +25°C° 0,4 mm 3 m/s 744 mmHg 77%
    20:00 +22°C° 0,4 mm 3 m/s 744 mmHg 86%
    21:00 +21°C° 0,2 mm 3 m/s 744 mmHg 87%
    22:00 +21°C° 0,2 mm 3 m/s 744 mmHg 89%
    23:00 +20°C° 0,2 mm 3 m/s 744 mmHg 91%

    27 Iulie, Vineri

    Timp Temperatura Precipitaţii Vânt Presiune Umiditate
    00:00 +20°C° 0,2 mm 3 m/s 744 mmHg 92%
    01:00 +19°C° 0,2 mm 2 m/s 744 mmHg 94%
    02:00 +19°C° 0,2 mm 2 m/s 744 mmHg 95%
    03:00 +19°C° 0 mm 2 m/s 745 mmHg 96%
    04:00 +19°C° 0 mm 2 m/s 745 mmHg 96%
    05:00 +18°C° 0 mm 2 m/s 745 mmHg 96%
    06:00 +20°C° 0 mm 2 m/s 745 mmHg 92%
    07:00 +21°C° 0 mm 2 m/s 745 mmHg 88%
    08:00 +24°C° 0 mm 2 m/s 746 mmHg 83%
    09:00 +25°C° 0 mm 3 m/s 746 mmHg 76%
    10:00 +27°C° 0 mm 3 m/s 746 mmHg 69%
    11:00 +29°C° 0 mm 3 m/s 746 mmHg 61%
    12:00 +29°C° 0,1 mm 4 m/s 746 mmHg 58%
    13:00 +30°C° 0,1 mm 4 m/s 746 mmHg 54%
    14:00 +30°C° 0,1 mm 4 m/s 746 mmHg 51%
    15:00 +30°C° 0,2 mm 4 m/s 746 mmHg 54%
    16:00 +29°C° 0,2 mm 4 m/s 746 mmHg 57%
    17:00 +29°C° 0,2 mm 3 m/s 746 mmHg 60%
    18:00 +27°C° 0,2 mm 3 m/s 746 mmHg 66%
    19:00 +26°C° 0,2 mm 3 m/s 746 mmHg 71%
    20:00 +24°C° 0,2 mm 2 m/s 747 mmHg 77%
    21:00 +24°C° 0 mm 2 m/s 747 mmHg 78%
    22:00 +23°C° 0 mm 2 m/s 747 mmHg 80%
    23:00 +21°C° 0 mm 2 m/s 747 mmHg 81%

    28 Iulie, Sâmbătă

    Timp Temperatura Precipitaţii Vânt Presiune Umiditate
    00:00 +21°C° 0 mm 2 m/s 747 mmHg 84%
    01:00 +20°C° 0 mm 2 m/s 747 mmHg 86%
    02:00 +19°C° 0 mm 2 m/s 747 mmHg 88%
    03:00 +19°C° 0 mm 2 m/s 747 mmHg 89%
    04:00 +19°C° 0 mm 2 m/s 747 mmHg 90%
    05:00 +19°C° 0 mm 2 m/s 747 mmHg 91%
    06:00 +21°C° 0 mm 2 m/s 748 mmHg 84%
    07:00 +24°C° 0 mm 2 m/s 748 mmHg 76%
    08:00 +26°C° 0 mm 2 m/s 748 mmHg 69%
    09:00 +28°C° 0 mm 3 m/s 748 mmHg 61%
    10:00 +29°C° 0 mm 3 m/s 748 mmHg 54%
    11:00 +30°C° 0 mm 3 m/s 748 mmHg 46%
    12:00 +31°C° 0 mm 3 m/s 748 mmHg 45%
    13:00 +31°C° 0 mm 3 m/s 748 mmHg 43%
    14:00 +31°C° 0 mm 3 m/s 748 mmHg 42%
    15:00 +31°C° 0 mm 3 m/s 747 mmHg 46%
    16:00 +30°C° 0 mm 2 m/s 747 mmHg 51%
    17:00 +30°C° 0 mm 2 m/s 747 mmHg 55%
    18:00 +28°C° 0 mm 2 m/s 747 mmHg 62%
    19:00 +26°C° 0 mm 2 m/s 748 mmHg 69%
    20:00 +24°C° 0 mm 2 m/s 748 mmHg 76%
    21:00 +23°C° 0 mm 2 m/s 748 mmHg 78%
    22:00 +21°C° 0 mm 2 m/s 748 mmHg 80%
    23:00 +21°C° 0 mm 1 m/s 748 mmHg 82%
    Arată mai mult